Thetford Center, VT (05075)

12:23 AM EDT on August 30, 2015 (GMT -0400)
Stone House Farm | | Change Station
CLOSE
Current Station
Personal Weather Station
Location: Strafford, VT
Elevation: 1230 ft
Nearby Weather Stations

Elev 1230 ft 43.83 °N, 72.34 °W | Updated 3 seconds ago

Overcast
Overcast
62.0 °F
Feels Like 62.0 °F
N
0.0
Wind Variable Wind from SSW
Gusts 0.0 mph

Today
High -- | Low -- °F
--% Chance of Precip.
Yesterday
High -- | Low -- °F
Precip. -- in
6:09 AM 7:28 PM
Full, 100% visible
Pressure 30.06 in
Visibility 10.0 miles
Clouds Clear
Dew Point 24 °F
Humidity 23%
Rainfall 0.00 in
Snow Depth Not available.
UV 0 out of 12
Pollen 8.40 out of 12
Air Quality Not available.
Flu Activity Not available.
METAR KLEB 300353Z AUTO 00000KT 10SM CLR 17/15 A3008 RMK AO2 SLP178 T01720150
Pressure 30.06 in
Visibility 10.0 miles
Clouds Clear
Dew Point 24 °F
Humidity 23%
Rainfall 0.00 in
Snow Depth Not available.
UV 0 out of 12
Pollen 8.40 out of 12
Air Quality Not available.
Flu Activity Not available.
METAR KLEB 300353Z AUTO 00000KT 10SM CLR 17/15 A3008 RMK AO2 SLP178 T01720150

10-Day Weather Forecast

×

Almanac

Astronomy

Aug. 30, 2015 Rise Set
Actual Time
Civil Twilight
Nautical Twilight
Astronomical Twilight
Moon
Length of Visible Light
Length of Day
Tomorrow will be .
, % of the Moon is Illuminated

Today's Extremes

State Highs State Lows

Community

WunderPhotos

Upload Photos

1,850,881 photos uploaded!

WunderBlogs® & News

Nearby

Air Quality

  Air Quality AQ Index Pollutant
Not available.

Snow Depth

Station Depth Elevation

Earthquake Activity

City Distance Mag. Time & Date
Minimum magnitude displayed is 2.5.

Coastal Water Temperatures

Place Temperature

Stations

Nearby Weather Stations

Station Location Temp. Windchill Dew Point Humidity Wind Precip. Elev Updated Type